1488481200.96,45174,9.63,72726.8,-11.11,-13.79,-13.65,0,*6E
1488481202.23,45175,9.63,72720.3,-11.09,-13.79,-13.79,0,*6B
1488481203.48,45176,9.63,72722.0,-11.09,-13.93,-13.79,0,*6C
1488481204.72,45177,9.63,72724.8,-11.11,-13.83,-13.73,0,*6F
1488481205.97,45178,9.63,72718.0,-11.05,-13.83,-13.69,0,*6E
1488481207.19,45179,9.63,72718.0,-11.09,-13.93,-13.73,0,*69
1488481208.44,45180,9.63,72714.3,-11.09,-13.93,-13.79,0,*65
1488481209.69,45181,9.63,72720.5,-11.09,-13.93,-13.83,0,*61
1488481210.93,45182,9.63,72714.3,-11.11,-13.97,-13.93,0,*6E
1488481212.17,45183,9.63,72708.5,-11.11,-13.93,-14.05,0,*63
1488481213.41,45184,9.69,72714.3,-11.11,-14.05,-14.11,0,*69
1488481214.65,45185,9.63,72714.5,-11.11,-13.97,-14.19,0,*6C
1488481215.91,45186,9.63,72720.0,-11.09,-13.97,-14.19,0,*66
1488481217.18,45187,9.69,72720.0,-11.09,-13.97,-14.33,0,*6F
1488481218.42,45188,9.69,72724.8,-11.11,-13.97,-14.33,0,*69
1488481219.69,45189,9.63,72730.3,-11.13,-14.11,-14.51,0,*67
1488481220.94,45190,9.63,72738.3,-11.11,-14.11,-14.47,0,*6A
1488481222.23,45191,9.63,72738.0,-11.09,-14.05,-14.51,0,*60
1488481223.48,45192,9.63,72740.3,-11.09,-14.19,-14.65,0,*69
1488481224.74,45193,9.63,72738.8,-11.09,-14.33,-14.93,0,*69
1488481226.0,45194,9.63,72742.3,-11.09,-14.33,-14.97,0,*6A
1488481227.27,45195,9.63,72740.3,-11.09,-14.47,-15.07,0,*60
1488481228.54,45196,9.63,72738.8,-11.09,-14.47,-15.25,0,*63
1488481229.84,45197,9.63,72736.8,-11.09,-14.51,-15.39,0,*68
1488481231.11,45198,9.63,72740.5,-11.09,-14.51,-15.49,0,*60
1488481232.35,45199,9.63,72738.8,-11.09,-14.61,-15.53,0,*69
1488481233.58,45200,9.63,72736.3,-11.09,-14.61,-15.71,0,*6A
1488481234.87,45201,9.63,72730.5,-11.09,-14.75,-16.13,0,*69
1488481236.12,45202,9.69,72728.0,-11.09,-14.75,-16.41,0,*6D
1488481237.41,45203,9.63,72730.8,-11.09,-14.83,-16.69,0,*6F
1488481238.67,45204,9.63,72732.5,-11.05,-14.93,-17.21,0,*68
1488481239.93,45205,9.63,72732.0,-11.09,-15.11,-17.59,0,*61
1488481241.17,45206,9.63,72734.3,-11.05,-15.29,-18.01,0,*67
1488481242.41,45207,9.63,72740.3,-11.09,-15.63,-18.65,0,*66
1488481243.69,45208,9.63,72742.0,-11.09,-15.85,-19.27,0,*66
1488481244.92,45209,9.63,72744.5,-11.09,-15.99,-19.91,0,*67
1488481246.16,45210,9.63,72750.0,-11.05,-16.31,-20.43,0,*67
1488481247.44,45211,9.63,72750.5,-11.05,-16.51,-21.23,0,*67
1488481248.68,45212,9.63,72742.8,-11.05,-16.93,-22.17,0,*6E
1488481249.97,45213,9.63,72746.0,-11.09,-17.17,-23.19,0,*61
1488481251.25,45214,9.63,72738.8,-11.05,-17.41,-24.21,0,*65
1488481252.49,45215,9.63,72734.0,-11.05,-17.59,-25.23,0,*6E
1488481253.73,45216,9.63,72734.3,-11.05,-17.73,-26.55,0,*67
1488481254.94,45217,9.63,72728.3,-11.05,-18.11,-27.77,0,*6C
1488481256.2,45218,9.63,72736.0,-11.09,-18.65,-29.29,0,*69
1488481257.49,45219,9.63,72738.8,-11.09,-19.23,-30.89,0,*69
1488481258.72,45220,9.63,72742.0,-11.09,-19.91,-32.35,0,*6F
1488481259.98,45221,9.69,72754.5,-11.09,-20.93,-33.77,0,*61
1488481261.24,45222,9.69,72750.0,-11.09,-22.21,-35.17,0,*69
1488481262.5,45223,9.63,72750.0,-11.11,-23.33,-36.13,0,*64
1488481263.72,45224,9.63,72754.3,-11.11,-24.47,-36.97,0,*6B
1488481264.99,45225,9.63,72732.3,-11.11,-25.55,-37.51,0,*63
1488481266.26,45226,9.69,72724.3,-11.11,-26.81,-37.81,0,*67
1488481267.53,45227,9.63,72720.5,-11.13,-27.89,-37.93,0,*6E
1488481268.77,45228,9.63,72732.3,-11.13,-28.85,-37.87,0,*67
1488481270.02,45229,9.63,72734.3,-11.11,-29.61,-37.51,0,*64
1488481271.25,45230,9.63,72718.3,-11.13,-30.45,-37.33,0,*64
1488481272.49,45231,9.63,72726.3,-11.13,-31.17,-37.15,0,*67
1488481273.76,45232,9.63,72730.5,-11.13,-31.85,-36.73,0,*6E
1488481275.02,45233,9.63,72736.5,-11.13,-32.39,-36.37,0,*6B
1488481276.29,45234,9.63,72738.3,-11.13,-32.85,-36.01,0,*6E
1488481277.56,45235,9.69,72750.3,-11.13,-33.21,-35.41,0,*67
1488481278.85,45236,9.69,72752.5,-11.13,-33.77,-35.07,0,*65
1488481280.11,45237,9.63,72750.3,-11.15,-34.19,-34.35,0,*6D
1488481281.38,45238,9.63,72732.3,-11.17,-34.65,-33.83,0,*61
1488481282.62,45239,9.63,72726.5,-11.15,-34.95,-33.37,0,*62
1488481283.86,45240,9.63,72726.8,-11.15,-35.13,-32.75,0,*64
1488481285.09,45241,9.63,72726.8,-11.15,-35.41,-32.13,0,*62
1488481286.33,45242,9.63,72720.8,-11.15,-35.65,-31.33,0,*66
1488481287.57,45243,9.63,72706.0,-11.17,-35.71,-30.67,0,*60
1488481288.86,45244,9.63,72706.5,-11.17,-35.65,-30.17,0,*65
1488481290.11,45245,9.63,72704.0,-11.15,-35.41,-29.39,0,*64
1488481291.38,45246,9.69,72712.3,-11.19,-35.23,-28.91,0,*6C
1488481292.68,45247,9.63,72712.0,-11.17,-34.65,-28.21,0,*6B
1488481293.92,45248,9.63,72708.3,-11.15,-34.01,-27.89,0,*69
1488481295.22,45249,9.63,72714.8,-11.17,-33.49,-27.83,0,*6B
1488481296.43,45250,9.63,72718.3,-11.19,-32.69,-27.77,0,*65
1488481297.64,45251,9.63,72714.3,-11.19,-32.23,-27.77,0,*6A
1488481298.89,45252,9.63,72712.0,-11.19,-31.57,-27.93,0,*63
1488481300.13,45253,9.63,72718.8,-11.19,-31.17,-28.09,0,*6A
1488481301.4,45254,9.63,72718.0,-11.19,-30.73,-28.25,0,*60
1488481302.68,45255,9.63,72726.0,-11.21,-30.39,-28.59,0,*6F
1488481303.94,45256,9.63,72748.3,-11.21,-30.11,-28.79,0,*64
1488481305.18,45257,9.63,72748.0,-11.19,-29.79,-28.91,0,*6E
1488481306.42,45258,9.63,72734.0,-11.19,-29.45,-29.01,0,*66
1488481307.66,45259,9.63,72712.0,-11.19,-29.17,-29.61,0,*66
1488481308.96,45260,9.63,72688.3,-11.21,-28.79,-30.17,0,*67
1488481310.23,45261,9.63,72676.3,-11.21,-28.79,-31.01,0,*60
1488481311.49,45262,9.63,72660.5,-11.19,-28.79,-31.57,0,*6B
1488481312.76,45263,9.63,72662.3,-11.19,-28.79,-32.29,0,*60
1488481314.05,45264,9.63,72682.8,-11.21,-28.79,-32.85,0,*6A
1488481315.34,45265,9.69,72684.8,-11.21,-29.13,-33.61,0,*6D
1488481316.57,45266,9.63,72674.8,-11.21,-29.61,-34.25,0,*6C
1488481317.82,45267,9.63,72682.3,-11.19,-30.11,-34.65,0,*6D
1488481319.08,45268,9.63,72686.5,-11.21,-30.83,-34.83,0,*6A
1488481320.3,45269,9.63,72686.0,-11.23,-31.45,-35.01,0,*69
1488481321.58,45270,9.63,72676.5,-11.21,-32.07,-35.01,0,*66
1488481322.85,45271,9.63,72680.5,-11.21,-32.69,-34.65,0,*6C
1488481324.08,45272,9.63,72700.0,-11.23,-33.37,-34.47,0,*67
1488481325.33,45273,9.63,72700.0,-11.23,-33.89,-34.31,0,*62
1488481326.6,45274,9.63,72692.8,-11.25,-34.35,-33.95,0,*6A
1488481327.85,45275,9.63,72692.0,-11.23,-34.59,-33.49,0,*66
1488481329.12,45276,9.63,72692.5,-11.25,-34.77,-33.27,0,*67
1488481330.36,45277,9.63,72694.0,-11.25,-34.77,-33.03,0,*60
1488481331.66,45278,9.63,72698.5,-11.25,-34.95,-32.85,0,*6C
1488481332.9,45279,9.63,72702.3,-11.23,-34.89,-32.63,0,*6E
1488481334.18,45280,9.69,72702.0,-11.25,-35.07,-32.51,0,*68
1488481335.44,45281,9.63,72700.3,-11.25,-34.95,-32.13,0,*65
1488481336.68,45282,9.63,72704.8,-11.25,-34.89,-31.79,0,*64
1488481337.94,45283,9.63,72710.5,-11.25,-34.71,-31.45,0,*6D
1488481339.23,45284,9.69,72712.8,-11.25,-34.53,-31.11,0,*6B
1488481340.52,45285,9.63,72708.3,-11.25,-34.47,-30.89,0,*6F
1488481341.79,45286,9.63,72708.0,-11.25,-34.47,-30.55,0,*6D
1488481343.07,45287,9.63,72718.3,-11.25,-34.47,-30.17,0,*6A
1488481344.31,45288,9.63,72716.8,-11.25,-34.47,-29.57,0,*69
1488481345.61,45289,9.63,72720.5,-11.25,-34.53,-29.01,0,*6E
1488481346.86,45290,9.63,72720.3,-11.25,-34.71,-28.31,0,*64
1488481348.11,45291,9.63,72720.3,-11.25,-34.77,-27.67,0,*6F
1488481349.41,45292,9.63,72720.0,-11.25,-35.07,-26.97,0,*64
1488481350.65,45293,9.63,72718.0,-11.27,-34.95,-25.87,0,*6F
1488481351.93,45294,9.63,72716.8,-11.27,-34.95,-25.03,0,*64
1488481353.15,45295,9.63,72728.5,-11.27,-34.77,-24.05,0,*6E
1488481354.43,45296,9.63,72726.3,-11.27,-34.65,-23.03,0,*6F
1488481355.68,45297,9.63,72726.5,-11.27,-34.19,-21.93,0,*6E
1488481356.93,45298,9.63,72722.8,-11.31,-33.73,-20.93,0,*6C
1488481358.14,45299,9.63,72726.5,-11.27,-33.15,-19.99,0,*6A
1488481359.36,45300,9.63,72728.3,-11.27,-32.39,-18.99,0,*65
1488481360.61,45301,9.63,72720.5,-11.31,-31.85,-17.87,0,*67
1488481361.87,45302,9.63,72716.8,-11.27,-30.89,-17.17,0,*67
1488481363.12,45303,9.63,72712.8,-11.31,-30.05,-16.59,0,*6E
1488481364.34,45304,9.63,72716.8,-11.27,-29.07,-16.03,0,*6B
1488481365.61,45305,9.63,72710.8,-11.25,-27.93,-15.43,0,*6C
1488481366.83,45306,9.63,72700.3,-11.27,-26.87,-15.15,0,*6A
1488481368.1,45307,9.63,72710.0,-11.27,-25.97,-14.83,0,*67
1488481369.35,45308,9.63,72718.8,-11.27,-25.03,-14.65,0,*6D
1488481370.62,45309,9.63,72712.0,-11.23,-24.11,-14.47,0,*6A
1488481371.86,45310,9.63,72718.8,-11.27,-23.23,-14.29,0,*68
1488481373.09,45311,9.63,72718.3,-11.27,-22.57,-14.29,0,*6B
1488481374.33,45312,9.63,72712.5,-11.25,-21.93,-14.15,0,*6E
1488481375.6,45313,9.63,72714.3,-11.25,-21.17,-14.01,0,*66
1488481376.89,45314,9.63,72712.0,-11.25,-20.49,-14.01,0,*6B
1488481378.13,45315,9.63,72712.5,-11.25,-19.91,-13.93,0,*69
1488481379.38,45316,9.63,72710.8,-11.25,-19.41,-13.93,0,*67
1488481380.62,45317,9.63,72720.3,-11.23,-18.65,-13.79,0,*63
1488481381.88,45318,9.63,72720.5,-11.25,-18.25,-13.83,0,*6B
1488481383.14,45319,9.63,72718.5,-11.25,-17.83,-13.79,0,*6C
1488481384.38,45320,9.63,72720.5,-11.23,-17.41,-13.65,0,*63
1488481385.62,45321,9.63,72720.5,-11.25,-16.89,-13.65,0,*61
1488481386.86,45322,9.63,72716.8,-11.23,-16.41,-13.61,0,*64
1488481388.1,45323,9.63,72724.0,-11.23,-16.23,-13.51,0,*62
1488481389.34,45324,9.63,72724.5,-11.23,-15.85,-13.47,0,*6D
1488481390.55,45325,9.63,72730.5,-11.23,-15.63,-13.47,0,*64
1488481391.78,45326,9.63,72724.0,-11.23,-15.39,-13.47,0,*68
1488481393.04,45327,9.63,72720.3,-11.23,-15.21,-13.33,0,*63
1488481394.3,45328,9.63,72728.0,-11.23,-14.75,-13.33,0,*6C
1488481395.53,45329,9.63,72726.8,-11.23,-14.61,-13.19,0,*60
1488481396.81,45330,9.63,72722.8,-11.21,-14.47,-13.19,0,*6E
1488481398.05,45331,9.63,72716.5,-11.21,-14.33,-13.19,0,*6C
1488481399.33,45332,9.63,72720.8,-11.21,-14.05,-13.19,0,*6A
1488481400.58,45333,9.63,72726.0,-11.19,-13.97,-13.11,0,*64
1488481401.84,45334,9.63,72720.5,-11.21,-13.87,-13.11,0,*69
1488481403.08,45335,9.63,72724.8,-11.21,-13.73,-13.07,0,*64
1488481404.32,45336,9.63,72726.8,-11.19,-13.65,-13.01,0,*6D
1488481405.55,45337,9.63,72730.8,-11.19,-13.65,-13.01,0,*6C
1488481406.79,45338,9.63,72734.0,-11.19,-13.47,-13.01,0,*63
1488481408.03,45339,9.63,72734.0,-11.19,-13.51,-13.01,0,*65
1488481409.29,45340,9.63,72734.5,-11.19,-13.37,-13.01,0,*6B
1488481410.54,45341,9.63,72732.3,-11.17,-13.19,-12.89,0,*69
1488481411.77,45342,9.63,72736.3,-11.17,-13.15,-12.89,0,*66
1488481413.01,45343,9.63,72738.0,-11.17,-13.15,-12.89,0,*67
1488481414.25,45344,9.63,72742.3,-11.17,-13.15,-12.89,0,*60
1488481415.49,45345,9.63,72736.3,-11.17,-13.15,-12.89,0,*61
1488481416.75,45346,9.63,72730.5,-11.17,-13.07,-12.83,0,*6B
1488481418.0,45347,9.63,72728.3,-11.17,-13.19,-12.97,0,*60
1488481419.21,45348,9.63,72724.3,-11.15,-13.15,-12.93,0,*65
1488481420.44,45349,9.63,72726.5,-11.15,-13.11,-12.83,0,*61
1488481421.68,45350,9.63,72726.0,-11.15,-13.11,-12.83,0,*69
1488481422.92,45351,9.63,72732.0,-11.17,-13.07,-12.97,0,*68
1488481424.16,45352,9.63,72732.8,-11.15,-13.01,-12.93,0,*6B
1488481425.38,45353,9.63,72730.0,-11.15,-12.97,-12.93,0,*64
1488481426.65,45354,9.63,72728.5,-11.15,-13.01,-12.83,0,*6C
1488481427.89,45355,9.63,72732.0,-11.15,-12.93,-12.83,0,*67
1488481429.17,45356,9.63,72728.5,-11.13,-12.83,-12.83,0,*63
1488481430.46,45357,9.63,72728.8,-11.13,-12.83,-12.79,0,*67
1488481431.73,45358,9.63,72738.0,-11.13,-12.93,-12.79,0,*69
1488481433.02,45359,9.63,72736.3,-11.13,-12.83,-12.79,0,*69
1488481434.31,45360,9.63,72738.5,-11.13,-12.83,-12.79,0,*63
1488481435.58,45361,9.63,72732.5,-11.11,-12.79,-12.75,0,*69
1488481436.79,45362,9.63,72736.0,-11.11,-12.93,-12.93,0,*66
1488481438.06,45363,9.63,72740.0,-11.11,-12.79,-12.79,0,*67
1488481439.3,45364,9.63,72734.8,-11.13,-12.93,-12.93,0,*62
1488481440.57,45365,9.63,72734.8,-11.13,-12.93,-12.83,0,*62
1488481441.78,45366,9.63,72734.5,-11.11,-12.89,-12.89,0,*62
1488481443.02,45367,9.63,72734.8,-11.11,-12.79,-12.93,0,*67
1488481444.24,45368,9.63,72734.3,-11.11,-12.89,-12.93,0,*67
1488481445.48,45369,9.63,72732.5,-11.11,-12.79,-12.93,0,*69
1488481446.69,45370,9.63,72734.3,-11.11,-12.89,-12.93,0,*6E
1488481447.93,45371,9.63,72726.8,-11.13,-12.97,-13.15,0,*6D
1488481449.15,45372,9.63,72724.0,-11.11,-12.93,-13.19,0,*64
1488481450.36,45373,9.63,72728.3,-11.11,-12.93,-13.23,0,*6C
1488481451.58,45374,9.63,72730.3,-11.11,-12.97,-13.23,0,*6F
1488481452.82,45375,9.63,72728.8,-11.11,-12.97,-13.37,0,*6B
1488481454.02,45376,9.63,72734.0,-11.11,-12.93,-13.47,0,*6B
1488481455.23,45377,9.63,72732.0,-11.11,-12.97,-13.47,0,*6E
1488481456.47,45378,9.63,72734.0,-11.11,-12.97,-13.61,0,*65
1488481457.68,45379,9.63,72730.5,-11.11,-12.97,-13.65,0,*60
1488481458.91,45380,9.63,72730.8,-11.09,-12.97,-13.73,0,*68
1488481460.17,45381,9.63,72732.8,-11.09,-13.07,-13.83,0,*6E
1488481461.42,45382,9.63,72728.8,-11.09,-13.11,-13.87,0,*6E
1488481462.65,45383,9.63,72722.5,-11.09,-13.11,-13.93,0,*6A
1488481463.87,45384,9.63,72724.8,-11.09,-13.11,-14.11,0,*60
1488481465.11,45385,9.63,72722.0,-11.09,-13.19,-14.19,0,*61
1488481466.34,45386,9.63,72724.3,-11.09,-13.23,-14.33,0,*63
1488481467.61,45387,9.63,72720.3,-11.05,-13.33,-14.43,0,*68
1488481468.84,45388,9.63,72720.8,-11.11,-13.65,-14.79,0,*68
1488481470.11,45389,9.63,72716.3,-11.11,-13.61,-15.21,0,*61
1488481471.35,45390,9.63,72718.5,-11.09,-13.65,-15.49,0,*6A
1488481472.61,45391,9.63,72712.3,-11.09,-13.65,-15.85,0,*6B
1488481473.84,45392,9.63,72708.8,-11.09,-13.65,-16.41,0,*63
1488481475.09,45393,9.63,72710.0,-11.05,-13.73,-17.11,0,*6D
1488481476.35,45394,9.63,72708.5,-11.09,-13.79,-17.87,0,*63
1488481477.62,45395,9.63,72706.8,-11.09,-13.83,-18.69,0,*68
1488481478.89,45396,9.63,72704.0,-11.05,-13.87,-19.65,0,*6E
1488481480.13,45397,9.63,72706.5,-11.05,-14.29,-21.03,0,*67
1488481481.39,45398,9.63,72704.0,-11.09,-14.51,-22.67,0,*6A
1488481482.66,45399,9.63,72702.8,-11.09,-14.97,-24.15,0,*62
1488481483.93,45400,9.63,72704.8,-11.09,-15.53,-25.97,0,*67
1488481485.18,45401,9.63,72704.0,-11.09,-16.27,-27.77,0,*6A
1488481486.44,45402,9.63,72708.3,-11.09,-17.25,-29.79,0,*6A
1488481487.7,45403,9.63,72708.8,-11.09,-18.21,-31.61,0,*60
1488481488.94,45404,9.63,72710.3,-11.09,-19.37,-33.15,0,*60
1488481490.19,45405,9.63,72718.5,-11.11,-20.49,-34.31,0,*6A
1488481491.43,45406,9.63,72716.8,-11.11,-21.63,-35.35,0,*65
1488481492.64,45407,9.63,72718.0,-11.11,-22.87,-36.31,0,*6A
1488481493.91,45408,9.63,72722.8,-11.13,-24.05,-36.91,0,*61
1488481495.15,45409,9.63,72724.5,-11.13,-25.13,-37.33,0,*6F
1488481496.41,45410,9.63,72730.5,-11.13,-26.03,-37.69,0,*6A
1488481497.68,45411,9.63,72734.3,-11.11,-26.97,-37.81,0,*62
1488481498.92,45412,9.63,72740.5,-11.13,-27.77,-38.05,0,*6F
1488481500.18,45413,9.63,72742.8,-11.13,-28.47,-38.35,0,*61
1488481501.45,45414,9.63,72740.5,-11.13,-28.91,-38.73,0,*6F
1488481502.71,45415,9.63,72748.3,-11.13,-29.67,-39.03,0,*60
1488481503.97,45416,9.63,72760.8,-11.11,-30.17,-39.23,0,*6C
1488481505.23,45417,9.63,72756.3,-11.13,-30.73,-39.47,0,*6F
1488481506.47,45418,9.63,72762.0,-11.13,-31.17,-39.65,0,*63
1488481507.68,45419,9.63,72764.3,-11.15,-31.79,-39.85,0,*62
1488481508.94,45420,9.63,72764.0,-11.15,-32.19,-39.71,0,*66
1488481510.18,45421,9.63,72764.5,-11.15,-32.75,-39.85,0,*66
1488481511.45,45422,9.63,72768.8,-11.17,-33.27,-39.91,0,*64
1488481512.69,45423,9.63,72766.3,-11.17,-33.67,-39.91,0,*61
1488481513.93,45424,9.63,72768.3,-11.19,-34.13,-39.97,0,*6A
1488481515.18,45425,9.63,72774.3,-11.19,-34.59,-39.79,0,*65
1488481516.4,45426,9.63,72770.5,-11.19,-34.89,-39.65,0,*66
1488481517.66,45427,9.63,72770.0,-11.19,-35.35,-39.59,0,*6E
1488481518.91,45428,9.63,72766.0,-11.19,-35.53,-39.53,0,*6B
1488481520.15,45429,9.63,72762.8,-11.19,-35.83,-39.35,0,*67
1488481521.39,45430,9.63,72760.0,-11.19,-36.01,-39.15,0,*64
1488481522.63,45431,9.63,72764.5,-11.19,-36.19,-39.15,0,*6C
1488481523.89,45432,9.63,72756.8,-11.21,-36.37,-38.97,0,*63
1488481525.13,45433,9.63,72754.5,-11.19,-36.49,-38.61,0,*69
1488481526.37,45434,9.63,72756.5,-11.21,-36.55,-38.43,0,*68
1488481527.65,45435,9.63,72728.3,-11.23,-36.91,-38.29,0,*6F
1488481528.94,45436,9.63,72738.0,-11.21,-37.09,-38.29,0,*6E
1488481530.18,45437,9.63,72732.5,-11.21,-37.15,-38.05,0,*6C
1488481531.4,45438,9.63,72728.3,-11.23,-37.33,-37.87,0,*60
1488481532.62,45439,9.63,72748.8,-11.23,-37.45,-37.87,0,*60
1488481533.89,45440,9.63,72744.3,-11.21,-37.45,-37.81,0,*6A
1488481535.13,45441,9.63,72734.0,-11.23,-37.33,-37.81,0,*68
1488481536.35,45442,9.63,72736.0,-11.23,-37.33,-37.87,0,*6D
1488481537.57,45443,9.63,72726.3,-11.23,-37.33,-37.87,0,*6C
1488481538.83,45444,9.63,72716.8,-11.25,-37.39,-38.05,0,*62
1488481540.04,45445,9.63,72698.3,-11.23,-37.33,-38.17,0,*6C
1488481541.29,45446,9.63,72700.8,-11.23,-37.27,-38.29,0,*67
1488481542.56,45447,9.63,72708.0,-11.25,-37.21,-38.35,0,*6B
1488481543.83,45448,9.63,72706.3,-11.25,-37.15,-38.29,0,*6E
1488481545.1,45449,9.63,72704.5,-11.25,-37.15,-38.29,0,*6F
1488481546.35,45450,9.63,72702.8,-11.25,-37.15,-38.35,0,*6A
1488481547.62,45451,9.63,72702.8,-11.25,-37.15,-38.29,0,*66
1488481548.88,45452,9.63,72706.3,-11.25,-37.33,-38.23,0,*6B
1488481550.14,45453,9.63,72732.3,-11.25,-37.33,-38.11,0,*6B
1488481551.41,45454,9.63,72704.8,-11.23,-37.51,-37.69,0,*6E
1488481552.65,45455,9.63,72726.0,-11.25,-37.57,-37.57,0,*62
1488481553.92,45456,9.63,72724.5,-11.27,-37.69,-37.21,0,*6F
1488481555.17,45457,9.63,72710.8,-11.27,-37.87,-37.09,0,*64
1488481556.41,45458,9.63,72710.0,-11.31,-37.93,-36.97,0,*6F
1488481557.66,45459,9.63,72708.0,-11.31,-37.93,-36.67,0,*61
1488481558.92,45460,9.63,72704.3,-11.31,-37.93,-36.49,0,*67
1488481560.15,45461,9.63,72710.8,-11.27,-37.87,-36.19,0,*61
1488481561.4,45462,9.63,72720.8,-11.27,-37.93,-35.89,0,*6D
1488481562.67,45463,9.63,72710.0,-11.31,-37.99,-35.83,0,*6B
1488481563.92,45464,9.63,72708.3,-11.27,-37.93,-35.47,0,*69
1488481565.19,45465,9.63,72698.5,-11.31,-38.11,-35.53,0,*6F
1488481566.42,45466,9.63,72694.0,-11.27,-37.87,-35.29,0,*66
1488481567.66,45467,9.63,72708.3,-11.27,-37.75,-35.23,0,*60
1488481568.88,45468,9.63,72696.8,-11.27,-37.87,-35.13,0,*61
1488481570.12,45469,9.63,72696.5,-11.31,-37.93,-35.17,0,*66
1488481571.37,45470,9.63,72694.5,-11.31,-37.63,-35.13,0,*65
1488481572.64,45471,9.63,72708.5,-11.31,-37.63,-34.95,0,*6B
1488481573.88,45472,9.63,72712.3,-11.27,-37.51,-34.89,0,*63
1488481575.1,45473,9.63,72712.8,-11.31,-37.57,-35.01,0,*62
1488481576.32,45474,9.63,72706.3,-11.31,-37.45,-35.01,0,*66
1488481577.54,45475,9.63,72680.5,-11.31,-37.57,-35.13,0,*67
1488481578.78,45476,9.63,72668.0,-11.31,-37.63,-35.17,0,*67
1488481579.99,45477,9.63,72680.0,-11.31,-37.75,-35.13,0,*65
1488481581.23,45478,9.63,72690.3,-11.33,-37.75,-35.13,0,*68
1488481582.5,45479,9.63,72692.0,-11.33,-37.63,-35.01,0,*6D
1488481583.74,45480,9.63,72692.3,-11.35,-37.69,-34.89,0,*66
1488481584.99,45481,9.63,72708.8,-11.35,-37.63,-34.77,0,*6C
1488481586.23,45482,9.63,72702.8,-11.35,-37.69,-34.77,0,*65
1488481587.5,45483,9.63,72694.8,-11.31,-37.63,-34.53,0,*6C
1488481588.73,45484,9.63,72688.5,-11.35,-37.69,-34.41,0,*66
1488481590.02,45485,9.63,72708.0,-11.33,-37.63,-33.89,0,*68
1488481591.31,45486,9.63,72706.8,-11.33,-37.63,-33.61,0,*6D
1488481592.55,45487,9.63,72704.3,-11.33,-37.45,-33.67,0,*6E
1488481593.81,45488,9.63,72702.5,-11.33,-37.27,-33.49,0,*69
1488481595.08,45489,9.63,72700.0,-11.33,-37.03,-33.43,0,*64
1488481596.33,45490,9.63,72702.5,-11.35,-36.85,-33.31,0,*60
1488481597.54,45491,9.63,72696.8,-11.35,-36.67,-33.55,0,*6F
1488481598.78,45492,9.63,72692.3,-11.35,-36.49,-33.55,0,*60
1488481600.02,45493,9.63,72694.5,-11.35,-36.31,-33.49,0,*63
1488481601.27,45494,9.63,72702.0,-11.35,-36.01,-33.73,0,*6E
1488481602.51,45495,9.63,72702.3,-11.35,-35.71,-33.73,0,*6B
1488481603.77,45496,9.63,72702.8,-11.33,-35.47,-33.73,0,*6B
1488481605.01,45497,9.63,72700.3,-11.37,-35.17,-34.07,0,*6F
1488481606.24,45498,9.63,72708.8,-11.37,-34.89,-34.25,0,*66
1488481607.46,45499,9.63,72710.5,-11.35,-34.77,-34.59,0,*6F
1488481608.74,45500,9.63,72702.5,-11.37,-34.59,-35.07,0,*6A
1488481610.0,45501,9.63,72700.5,-11.37,-34.25,-35.23,0,*66
1488481611.23,45502,9.63,72702.8,-11.35,-34.13,-35.77,0,*63
1488481612.44,45503,9.63,72704.8,-11.35,-33.95,-36.19,0,*60
1488481613.68,45504,9.63,72716.8,-11.35,-33.89,-36.73,0,*66
1488481614.95,45505,9.63,72708.8,-11.35,-33.89,-37.09,0,*6B
1488481616.22,45506,9.63,72684.3,-11.37,-33.95,-37.81,0,*67
1488481617.43,45507,9.63,72690.0,-11.35,-34.13,-38.05,0,*6E
1488481618.69,45508,9.63,72702.8,-11.37,-34.07,-38.35,0,*65
1488481619.96,45509,9.63,72698.3,-11.37,-34.13,-38.49,0,*6A
1488481621.24,45510,9.63,72700.8,-11.39,-34.53,-38.91,0,*6D
1488481622.51,45511,9.63,72700.3,-11.37,-34.47,-39.03,0,*6D
1488481623.75,45512,9.63,72694.3,-11.39,-34.89,-39.29,0,*6A
1488481625.02,45513,9.63,72696.0,-11.39,-35.23,-39.59,0,*6D
1488481626.31,45514,9.63,72700.0,-11.37,-35.35,-39.59,0,*63
1488481627.55,45515,9.63,72706.0,-11.39,-35.65,-39.91,0,*6D
1488481628.79,45516,9.63,72706.3,-11.37,-36.19,-39.85,0,*6D
1488481630.03,45517,9.63,72692.5,-11.39,-36.43,-40.21,0,*6D
1488481631.3,45518,9.63,72680.3,-11.39,-36.61,-40.29,0,*6A
1488481632.58,45519,9.63,72684.5,-11.39,-36.91,-40.29,0,*64
1488481633.82,45520,9.63,72686.3,-11.39,-37.15,-40.41,0,*6D
1488481635.07,45521,9.63,72682.5,-11.39,-37.27,-40.41,0,*6D
1488481636.32,45522,9.63,72674.5,-11.39,-37.57,-40.41,0,*69
1488481637.59,45523,9.63,72670.8,-11.39,-37.69,-40.29,0,*6B
1488481638.82,45524,9.63,72668.5,-11.41,-37.75,-40.29,0,*6E
1488481640.08,45525,9.63,72680.3,-11.41,-37.93,-40.29,0,*67
1488481641.33,45526,9.63,72688.0,-11.37,-38.17,-40.35,0,*6B
1488481642.6,45527,9.63,72696.3,-11.39,-38.49,-40.21,0,*6A
1488481643.85,45528,9.63,72698.5,-11.39,-38.73,-40.41,0,*6A
1488481645.08,45529,9.63,72704.3,-11.41,-38.73,-40.21,0,*62
1488481646.29,45530,9.63,72708.8,-11.41,-38.73,-40.03,0,*6A
1488481647.52,45531,9.63,72704.0,-11.41,-38.91,-39.91,0,*62
1488481648.76,45532,9.63,72704.0,-11.43,-39.09,-39.91,0,*63
1488481649.99,45533,9.63,72708.0,-11.41,-39.23,-39.85,0,*6D
1488481651.21,45534,9.63,72704.0,-11.41,-39.47,-39.91,0,*6D
1488481652.42,45535,9.63,72710.3,-11.41,-39.47,-39.65,0,*67
1488481653.69,45536,9.63,72702.8,-11.43,-39.71,-39.65,0,*63
1488481654.93,45537,9.63,72700.3,-11.41,-39.91,-39.59,0,*61
1488481656.17,45538,9.63,72706.8,-11.41,-40.03,-39.59,0,*6B
1488481657.4,45539,9.63,72700.0,-11.41,-39.91,-39.41,0,*66
1488481658.66,45540,9.63,72700.8,-11.43,-40.09,-39.35,0,*66
1488481659.93,45541,9.63,72688.8,-11.43,-40.09,-39.09,0,*68
1488481661.18,45542,9.63,72686.5,-11.41,-40.29,-38.91,0,*6B
1488481662.46,45543,9.63,72680.3,-11.43,-40.29,-38.91,0,*68
1488481663.67,45544,9.63,72680.3,-11.41,-40.35,-38.55,0,*68
1488481664.91,45545,9.63,72690.3,-11.43,-40.35,-38.35,0,*6D
1488481666.19,45546,9.63,72686.3,-11.43,-40.29,-38.29,0,*6E
1488481667.44,45547,9.63,72690.3,-11.43,-40.15,-38.17,0,*6D
1488481668.68,45548,9.63,72692.3,-11.43,-40.15,-38.17,0,*62
1488481669.95,45549,9.63,72686.0,-11.45,-40.09,-37.99,0,*61
1488481671.22,45550,9.63,72682.0,-11.45,-39.97,-37.99,0,*60
1488481672.46,45551,9.63,72680.8,-11.45,-39.85,-38.11,0,*6D
1488481673.67,45552,9.63,72674.0,-11.45,-39.65,-38.17,0,*66
1488481674.95,45553,9.63,72676.3,-11.47,-39.79,-38.35,0,*68
1488481676.24,45554,9.63,72680.0,-11.47,-39.53,-38.23,0,*60
1488481677.49,45555,9.63,72692.0,-11.47,-39.35,-38.35,0,*66
1488481678.75,45556,9.63,72694.5,-11.47,-39.35,-38.23,0,*62
1488481680.03,45557,9.63,72694.0,-11.47,-39.15,-38.35,0,*66
1488481681.32,45558,9.63,72706.8,-11.47,-39.03,-38.23,0,*69
1488481682.55,45559,9.63,72706.5,-11.47,-38.97,-38.05,0,*60
1488481683.82,45560,9.63,72708.0,-11.47,-38.97,-37.81,0,*69
1488481685.07,45561,9.63,72708.8,-11.47,-38.97,-37.69,0,*6E
1488481686.37,45562,9.63,72710.0,-11.47,-39.03,-37.51,0,*6A
1488481687.61,45563,9.63,72710.3,-11.45,-38.91,-37.15,0,*63
1488481688.83,45564,9.63,72708.0,-11.45,-38.61,-36.67,0,*6F
1488481690.04,45565,9.63,72716.8,-11.49,-38.61,-36.19,0,*6B
1488481691.29,45566,9.63,72718.3,-11.49,-38.23,-35.89,0,*64
1488481692.53,45567,9.63,72718.5,-11.49,-38.17,-35.53,0,*65
1488481693.75,45568,9.63,72714.8,-11.49,-37.87,-35.01,0,*6B
1488481695.0,45569,9.63,72712.3,-11.49,-37.51,-34.31,0,*63
1488481696.24,45570,9.63,72708.8,-11.49,-37.27,-33.73,0,*6B
1488481697.5,45571,9.63,72710.8,-11.49,-37.09,-32.97,0,*6D
1488481698.74,45572,9.63,72704.8,-11.49,-36.85,-32.45,0,*64
1488481699.96,45573,9.63,72712.5,-11.49,-36.67,-31.79,0,*65